Claxton, GA

5:31 AM EST on February 12, 2016 (GMT -0500)
Claxton-Evans County

Weather History for KCWV - March, 2014

Change the Weather History Date:

Wednesday, March 26, 2014

  Actual Average (KSAV) Record (KSAV)
Temperature  
Mean Temperature 46 °F 61 °F  
Max Temperature 59 °F 73 °F 88 °F (1929)
Min Temperature 32 °F 50 °F 34 °F (1979)
Degree Days  
Heating Degree Days 20 5  
Month to date heating degree days 187  
Since 1 July heating degree days 1704  
Cooling Degree Days 0 1  
Month to date cooling degree days 26  
Year to date cooling degree days 36  
Moisture  
Dew Point 27 °F    
Average Humidity 54    
Maximum Humidity 93    
Minimum Humidity 27    
Precipitation  
Precipitation 0.00 in 0.12 in 1.40 in (1892)
Month to date precipitation 3.10  
Year to date precipitation 9.58  
Sea Level Pressure  
Sea Level Pressure 30.26 in    
Wind  
Wind Speed 7 mph (NW)    
Max Wind Speed 16 mph    
Max Gust Speed 25 mph    
Visibility 10 miles    
Events      
T = Trace of Precipitation, MM = Missing Value Source: NWS Daily Summary

Daily Weather History Graph

Daily Weather History Graph

Search for Another Location

Airport or City:

Trip Planner

Search our weather history database for the weather conditions in past years. The results will help you decide how hot, cold, wet, or windy it might be!

Date:

Astronomy

Mar. 26, 2014 Rise Set
Actual Time 7:23 AM EDT 7:43 PM EDT
Civil Twilight 6:58 AM EDT 8:07 PM EDT
Nautical Twilight 6:30 AM EDT 8:36 PM EDT
Astronomical Twilight 6:01 AM EDT 9:05 PM EDT
Moon 4:16 AM EDT (3/26) 3:33 PM EDT (3/26)
Length of Visible Light 13h 08m
Length of Day
12h 19m
Waning Crescent, 22% of the Moon is Illuminated
Mar 26
Waning Crescent
Mar 30
New
Apr 7
First Quarter
Apr 15
Full
Apr 22
Last Quarter

Hourly Weather History & Observations

Time (EDT) Temp. Windchill Dew Point Humidity Pressure Visibility Wind Dir Wind Speed Gust Speed Precip Events Conditions
12:15 AM 44.6 °F 37.4 °F 26.6 °F 49% 30.14 in 10.0 mi WNW 16.1 mph - N/A   Clear
12:35 AM 44.6 °F 39.2 °F 26.6 °F 49% 30.14 in 10.0 mi WNW 10.4 mph 16.1 mph N/A   Clear
12:55 AM 42.8 °F 35.1 °F 26.6 °F 53% 30.15 in 10.0 mi WNW 16.1 mph 23.0 mph N/A   Clear
1:15 AM 42.8 °F 36.6 °F 26.6 °F 53% 30.16 in 10.0 mi NW 11.5 mph 18.4 mph N/A   Clear
1:35 AM 42.8 °F 35.4 °F 24.8 °F 49% 30.16 in 10.0 mi WNW 15.0 mph 25.3 mph N/A   Clear
1:55 AM 42.8 °F 37.5 °F 24.8 °F 49% 30.17 in 10.0 mi NW 9.2 mph - N/A   Clear
2:15 AM 41.0 °F 34.3 °F 26.6 °F 57% 30.17 in 10.0 mi NW 11.5 mph 19.6 mph N/A   Clear
2:35 AM 41.0 °F 35.8 °F 26.6 °F 57% 30.17 in 10.0 mi NW 8.1 mph - N/A   Clear
2:55 AM 41.0 °F 34.7 °F 26.6 °F 57% 30.18 in 10.0 mi NW 10.4 mph - N/A   Clear
3:15 AM 41.0 °F 35.8 °F 26.6 °F 57% 30.18 in 10.0 mi NW 8.1 mph - N/A   Clear
3:35 AM 39.2 °F 33.0 °F 26.6 °F 61% 30.18 in 10.0 mi WNW 9.2 mph - N/A   Clear
3:55 AM 39.2 °F 34.2 °F 26.6 °F 61% 30.18 in 10.0 mi NW 6.9 mph - N/A   Clear
4:15 AM 37.4 °F 33.8 °F 26.6 °F 65% 30.18 in 10.0 mi NW 4.6 mph - N/A   Clear
4:35 AM 37.4 °F 32.8 °F 26.6 °F 65% 30.19 in 10.0 mi WNW 5.8 mph - N/A   Clear
4:55 AM 37.4 °F 33.8 °F 26.6 °F 65% 30.20 in 10.0 mi WNW 4.6 mph - N/A   Clear
5:15 AM 35.6 °F 31.7 °F 26.6 °F 70% 30.21 in 10.0 mi WNW 4.6 mph - N/A   Clear
5:35 AM 35.6 °F 30.7 °F 26.6 °F 70% 30.22 in 10.0 mi WNW 5.8 mph - N/A   Clear
5:55 AM 35.6 °F 32.8 °F 26.6 °F 70% 30.23 in 10.0 mi WNW 3.5 mph - N/A   Clear
6:15 AM 33.8 °F - 26.6 °F 75% 30.24 in 10.0 mi Calm Calm - N/A   Clear
6:35 AM 33.8 °F 30.8 °F 26.6 °F 75% 30.25 in 10.0 mi WNW 3.5 mph - N/A   Clear
6:55 AM 32.0 °F 28.7 °F 26.6 °F 80% 30.26 in 10.0 mi NW 3.5 mph - N/A   Clear
7:15 AM 32.0 °F 27.5 °F 26.6 °F 80% 30.26 in 10.0 mi WNW 4.6 mph - N/A   Clear
7:35 AM 33.8 °F 30.8 °F 26.6 °F 75% 30.27 in 10.0 mi WNW 3.5 mph - N/A   Clear
7:55 AM 33.8 °F 30.8 °F 26.6 °F 75% 30.28 in 10.0 mi WNW 3.5 mph - N/A   Clear
8:15 AM 35.6 °F 32.8 °F 26.6 °F 70% 30.29 in 10.0 mi WNW 3.5 mph - N/A   Clear
8:35 AM 37.4 °F 34.9 °F 24.8 °F 60% 30.30 in 10.0 mi NW 3.5 mph - N/A   Clear
8:55 AM 39.2 °F 33.0 °F 23.0 °F 52% 30.31 in 10.0 mi North 9.2 mph - N/A   Clear
9:15 AM 41.0 °F 35.8 °F 21.2 °F 45% 30.31 in 10.0 mi North 8.1 mph - N/A   Clear
9:35 AM 42.8 °F 37.5 °F 21.2 °F 42% 30.32 in 10.0 mi North 9.2 mph - N/A   Clear
9:55 AM 42.8 °F 38.6 °F 21.2 °F 42% 30.33 in 10.0 mi NNW 6.9 mph - N/A   Clear
10:15 AM 44.6 °F 40.7 °F 21.2 °F 39% 30.34 in 10.0 mi NW 6.9 mph - N/A   Clear
10:35 AM 44.6 °F 39.7 °F 21.2 °F 39% 30.35 in 10.0 mi NW 9.2 mph - N/A   Clear
10:55 AM 44.6 °F 40.7 °F 21.2 °F 39% 30.35 in 10.0 mi North 6.9 mph - N/A   Clear
11:15 AM 46.4 °F 43.5 °F 21.2 °F 37% 30.35 in 10.0 mi NNW 5.8 mph - N/A   Clear
11:35 AM 46.4 °F - 21.2 °F 37% 30.34 in 10.0 mi Calm Calm - N/A   Clear
11:55 AM 48.2 °F - 23.0 °F 37% 30.34 in 10.0 mi North 5.8 mph - N/A   Clear
12:15 PM 48.2 °F - 21.2 °F 34% 30.33 in 10.0 mi NW 6.9 mph - N/A   Clear
12:35 PM 50.0 °F - 23.0 °F 35% 30.32 in 10.0 mi North 9.2 mph - N/A   Clear
12:55 PM 50.0 °F - 21.2 °F 32% 30.31 in 10.0 mi Calm Calm - N/A   Clear
1:15 PM 50.0 °F - 21.2 °F 32% 30.30 in 10.0 mi Calm Calm - N/A   Clear
1:35 PM 53.6 °F - 24.8 °F 33% 30.30 in 10.0 mi North 3.5 mph - N/A   Clear
1:55 PM 51.8 °F - 23.0 °F 33% 30.29 in 10.0 mi North 6.9 mph - N/A   Clear
2:15 PM 53.6 °F - 23.0 °F 30% 30.29 in 10.0 mi NNE 3.5 mph - N/A   Clear
2:35 PM 55.4 °F - 23.0 °F 29% 30.29 in 10.0 mi Calm Calm - N/A   Clear
2:55 PM 55.4 °F - 23.0 °F 29% 30.29 in 10.0 mi North 5.8 mph - N/A   Clear
3:15 PM 57.2 °F - 26.6 °F 31% 30.29 in 10.0 mi WNW 10.4 mph - N/A   Clear
3:35 PM 57.2 °F - 23.0 °F 27% 30.28 in 10.0 mi NNW 9.2 mph - N/A   Clear
3:55 PM 57.2 °F - 23.0 °F 27% 30.27 in 10.0 mi West 3.5 mph - N/A   Clear
4:15 PM 57.2 °F - 24.8 °F 29% 30.27 in 10.0 mi Calm Calm - N/A   Clear
4:35 PM 59.0 °F - 24.8 °F 27% 30.26 in 10.0 mi NW 3.5 mph - N/A   Clear
4:55 PM 57.2 °F - 23.0 °F 27% 30.26 in 10.0 mi WNW 8.1 mph - N/A   Clear
5:15 PM 59.0 °F - 24.8 °F 27% 30.25 in 10.0 mi NW 5.8 mph - N/A   Clear
5:35 PM 59.0 °F - 24.8 °F 27% 30.25 in 10.0 mi NW 4.6 mph - N/A   Clear
5:55 PM 59.0 °F - 24.8 °F 27% 30.26 in 10.0 mi NW 8.1 mph - N/A   Clear
6:35 PM 57.2 °F - 23.0 °F 27% 30.25 in 10.0 mi NNW 3.5 mph - N/A   Clear
6:55 PM 55.4 °F - 32.0 °F 41% 30.26 in 10.0 mi Calm Calm - N/A   Clear
7:15 PM 53.6 °F - 32.0 °F 44% 30.26 in 10.0 mi Calm Calm - N/A   Clear
7:35 PM 50.0 °F - 37.4 °F 62% 30.27 in 10.0 mi Calm Calm - N/A   Clear
7:55 PM 48.2 °F - 35.6 °F 62% 30.28 in 10.0 mi Calm Calm - N/A   Clear
8:15 PM 46.4 °F - 35.6 °F 66% 30.28 in 10.0 mi Calm Calm - N/A   Clear
8:35 PM 44.6 °F - 37.4 °F 76% 30.28 in 10.0 mi Calm Calm - N/A   Clear
8:55 PM 42.8 °F - 37.4 °F 81% 30.29 in 10.0 mi Calm Calm - N/A   Clear
9:35 PM 42.8 °F - 37.4 °F 81% 30.29 in 10.0 mi Calm Calm - N/A   Clear
9:55 PM 41.0 °F - 37.4 °F 87% 30.31 in 10.0 mi Calm Calm - N/A   Clear
10:15 PM 41.0 °F - 37.4 °F 87% 30.31 in 10.0 mi Calm Calm - N/A   Clear
10:35 PM 39.2 °F - 37.4 °F 93% 30.32 in 10.0 mi Calm Calm - N/A   Clear
10:55 PM 41.0 °F - 37.4 °F 87% 30.31 in 10.0 mi Calm Calm - N/A   Clear
11:15 PM 39.2 °F - 37.4 °F 93% 30.32 in 10.0 mi Calm Calm - N/A   Clear
11:35 PM 39.2 °F - 35.6 °F 87% 30.32 in 10.0 mi Calm Calm - N/A   Clear
11:55 PM 37.4 °F - 35.6 °F 93% 30.32 in 10.0 mi Calm Calm - N/A   Clear